This is the latest recevied weather packets stored in our database for station/object DH4SBM. If no packets are shown the sender has not sent any weather packets the latest 10 day(s).
| Time | Temp. | Humidity | Pressure | Rain* | Wind** | Luminosity | Snow |
|---|---|---|---|---|---|---|---|
| 1777731505 | 26.11° C | 25% | 1020.6 hPa | 0 mm | - | 599 W/m² | - |
| 1777730905 | 26.11° C | 25% | 1020.8 hPa | 0 mm | - | 615 W/m² | - |
| 1777730305 | 26.11° C | 26% | 1021 hPa | 0 mm | - | 670 W/m² | - |
| 1777729700 | 25.56° C | 26% | 1021.1 hPa | 0 mm | - | 701 W/m² | - |
| 1777729100 | 25° C | 27% | 1021.1 hPa | 0 mm | - | 689 W/m² | - |
| 1777728500 | 25.56° C | 26% | 1021.3 hPa | 0 mm | - | 731 W/m² | - |
| 1777728334 | 25.56° C | 26% | 1021.3 hPa | 0 mm | - | 731 W/m² | - |
| 1777727734 | 25° C | 27% | 1021.4 hPa | 0 mm | - | 686 W/m² | - |
| 1777727134 | 25° C | 28% | 1021.5 hPa | 0 mm | - | 705 W/m² | - |
| 1777726534 | 25° C | 27% | 1021.6 hPa | 0 mm | - | 724 W/m² | - |
| 1777725934 | 26.11° C | 28% | 1021.7 hPa | 0 mm | - | 749 W/m² | - |
| 1777725345 | 26.11° C | 29% | 1021.8 hPa | 0 mm | - | 733 W/m² | - |
| 1777724745 | 25.56° C | 30% | 1021.8 hPa | 0 mm | - | 729 W/m² | - |
| 1777724145 | 25° C | 32% | 1022 hPa | 0 mm | - | 735 W/m² | - |
| 1777723545 | 25° C | 32% | 1022.2 hPa | 0 mm | - | 679 W/m² | - |
| 1777722945 | 25° C | 31% | 1022.4 hPa | 0 mm | - | 772 W/m² | - |
| 1777722345 | 24.44° C | 34% | 1022.5 hPa | 0 mm | - | 710 W/m² | - |
| 1777721745 | 23.33° C | 34% | 1022.6 hPa | 0 mm | - | 786 W/m² | - |
| 1777721145 | 23.33° C | 35% | 1022.8 hPa | 0 mm | - | 828 W/m² | - |
| 1777720545 | 22.78° C | 37% | 1023 hPa | 0 mm | - | 798 W/m² | - |
| 1777719945 | 22.78° C | 34% | 1023 hPa | 0 mm | - | 788 W/m² | - |
| 1777719345 | 22.78° C | 34% | 1023.1 hPa | 0 mm | - | 868 W/m² | - |
| 1777718745 | 22.22° C | 35% | 1023.3 hPa | 0 mm | - | 675 W/m² | - |
| 1777718145 | 22.22° C | 37% | 1023.4 hPa | 0 mm | - | 759 W/m² | - |
| 1777717545 | 22.22° C | 37% | 1023.7 hPa | 0 mm | - | 744 W/m² | - |
* Rain latest hour (hover to see other rain measurements)
** Current wind speed in m/s (hover to see current wind gust speed)